User: anonymous
Location: Ostrava
(49.8330°N, 18.2830°E)
Time: 23:35:35
(UTC+02:00)
Language:

Cosmos 2221 - Orbit

View from above orbital plane
View from above orbital plane
View from above satellite
View from above satellite

Ground track
Ground track

The orbit data is extracted from the following two-line orbital elements,

1 22236U 92080A   14294.05125525  .00003577  00000-0  40460-3 0  2878
2 22236 082.5089 254.7163 0016408 341.9181 018.1450 14.86129265183132
Epoch (UTC): 21 October 2014 01:13:48
Eccentricity: 0.0016408
inclination: 82.5089°
perigee height: 598 km
apogee height: 621 km
right ascension of ascending node: 254.7163°
argument of perigee: 341.9181°
revolutions per day: 14.86129265
mean anomaly at epoch: 18.1450°
orbit number at epoch: 18313

The dashed part of the orbit path shows where the satellite is in the earth's shadow,  

DLR